WUK7FP EGGW-BKPR

Flight info

Callsign WUK7FP
Flight time 2h 45m
Altitude 33000
Route MATCH2C MATCH Q295 BRAIN P44 DAGGA M85 ITVIP L10 DVR UL9 KONAN DCT KOK DCT KOMOB DCT KRH DCT UTABA DCT MOMUK DCT GEDSO DCT VEKEN DCT DARZA DCT RINAV DCT ARBER ARBER1A
Aircraft A21N/M-SDE1E2E3FGIJ1J4RWXY/LB1

Departure

Time 2026-05-05 17:03
Airport London Luton Airport (EGGW)

Arrival

Time 2026-05-05 19:48
Airport Priština Adem Jashari International Airport (BKPR)
Time Latitude Longitude Altitude Speed Heading
2026-05-05 16:47 51.87962 -0.37317 539 ft 0 kts 161°
2026-05-05 16:52 51.87968 -0.37321 539 ft 4 kts 161°
2026-05-05 16:52 51.87991 -0.37333 539 ft 2 kts 161°
2026-05-05 16:52 51.88009 -0.37350 539 ft 0 kts 112°
2026-05-05 16:53 51.88010 -0.37378 539 ft 0 kts 72°
2026-05-05 16:53 51.88017 -0.37342 539 ft 0 kts 72°
2026-05-05 16:53 51.88018 -0.37336 539 ft 0 kts 72°
2026-05-05 16:56 51.88021 -0.37325 539 ft 3 kts 72°
2026-05-05 16:56 51.88033 -0.37266 539 ft 8 kts 70°
2026-05-05 16:56 51.88045 -0.37160 539 ft 12 kts 113°
2026-05-05 16:57 51.87959 -0.37092 539 ft 16 kts 163°
2026-05-05 16:57 51.87846 -0.37034 539 ft 17 kts 161°
2026-05-05 16:57 51.87729 -0.36970 539 ft 18 kts 161°
2026-05-05 16:57 51.87619 -0.37003 539 ft 19 kts 256°
2026-05-05 16:58 51.87588 -0.37207 540 ft 16 kts 254°
2026-05-05 16:58 51.87585 -0.37391 541 ft 17 kts 267°
2026-05-05 16:58 51.87506 -0.37531 542 ft 18 kts 249°
2026-05-05 16:58 51.87470 -0.37729 542 ft 19 kts 254°
2026-05-05 16:59 51.87432 -0.37934 542 ft 19 kts 252°
2026-05-05 16:59 51.87371 -0.38067 540 ft 5 kts 201°
2026-05-05 16:59 51.87338 -0.38087 539 ft 5 kts 200°
2026-05-05 16:59 51.87294 -0.38112 538 ft 8 kts 198°
2026-05-05 17:00 51.87233 -0.38177 535 ft 14 kts 243°
2026-05-05 17:00 51.87193 -0.38323 532 ft 16 kts 317°
2026-05-05 17:00 51.87225 -0.38228 533 ft 14 kts 90°
2026-05-05 17:00 51.87229 -0.38202 534 ft 0 kts 75°
2026-05-05 17:02 51.87252 -0.38072 538 ft 39 kts 73°
2026-05-05 17:02 51.87394 -0.37284 543 ft 106 kts 76°
2026-05-05 17:02 51.87633 -0.35811 618 ft 153 kts 73°
2026-05-05 17:03 51.87895 -0.34206 1336 ft 144 kts 71°
2026-05-05 17:03 51.88168 -0.32651 1893 ft 145 kts 71°
2026-05-05 17:03 51.88465 -0.31005 2097 ft 161 kts 71°
2026-05-05 17:03 51.88786 -0.29183 2440 ft 175 kts 71°
2026-05-05 17:04 51.89127 -0.27188 2788 ft 192 kts 72°
2026-05-05 17:04 51.89500 -0.25012 3175 ft 208 kts 71°
2026-05-05 17:04 51.89719 -0.22571 3497 ft 235 kts 92°
2026-05-05 17:04 51.89186 -0.19931 3834 ft 261 kts 122°
2026-05-05 17:05 51.87817 -0.17947 4441 ft 272 kts 153°
2026-05-05 17:05 51.85972 -0.17296 4863 ft 276 kts 180°
2026-05-05 17:05 51.84048 -0.17375 4984 ft 276 kts 170°
2026-05-05 17:05 51.82252 -0.16357 5009 ft 274 kts 153°
2026-05-05 17:06 51.80545 -0.14992 5004 ft 274 kts 152°
2026-05-05 17:06 51.78834 -0.13646 4996 ft 274 kts 153°
2026-05-05 17:06 51.77150 -0.12219 4987 ft 273 kts 143°
2026-05-05 17:06 51.75845 -0.10051 4982 ft 269 kts 118°
2026-05-05 17:07 51.75247 -0.07239 4980 ft 265 kts 93°
2026-05-05 17:07 51.75345 -0.04293 4985 ft 263 kts 80°
2026-05-05 17:07 51.75629 -0.01443 4982 ft 263 kts 79°
2026-05-05 17:07 51.75917 0.01475 4981 ft 263 kts 79°
2026-05-05 17:08 51.76187 0.04408 4990 ft 265 kts 81°
2026-05-05 17:08 51.76444 0.07358 4988 ft 265 kts 81°
2026-05-05 17:08 51.76694 0.10305 4987 ft 265 kts 81°
2026-05-05 17:08 51.76940 0.13256 4991 ft 265 kts 81°
2026-05-05 17:09 51.77183 0.16206 4992 ft 265 kts 81°
2026-05-05 17:09 51.77425 0.19160 4993 ft 265 kts 81°
2026-05-05 17:09 51.77665 0.22108 4996 ft 265 kts 81°
2026-05-05 17:09 51.77904 0.25050 4995 ft 264 kts 81°
2026-05-05 17:10 51.78145 0.27990 5391 ft 265 kts 81°
2026-05-05 17:10 51.78387 0.30961 6106 ft 269 kts 81°
2026-05-05 17:10 51.78630 0.33970 6849 ft 272 kts 81°
2026-05-05 17:10 51.78869 0.36976 7566 ft 275 kts 81°
2026-05-05 17:11 51.79118 0.40101 8273 ft 279 kts 81°
2026-05-05 17:11 51.79365 0.43180 8938 ft 282 kts 81°
2026-05-05 17:11 51.79619 0.46345 9594 ft 285 kts 81°
2026-05-05 17:11 51.79879 0.49595 10168 ft 293 kts 81°
2026-05-05 17:12 51.80147 0.52949 10479 ft 310 kts 82°
2026-05-05 17:12 51.80423 0.56445 10743 ft 326 kts 82°
2026-05-05 17:12 51.80711 0.60130 11241 ft 334 kts 82°
2026-05-05 17:12 51.81004 0.63873 11875 ft 337 kts 82°
2026-05-05 17:13 51.81296 0.67640 12504 ft 340 kts 83°
2026-05-05 17:13 51.81393 0.71464 13124 ft 343 kts 95°
2026-05-05 17:13 51.80861 0.75221 13735 ft 345 kts 112°
2026-05-05 17:13 51.79651 0.78574 14325 ft 348 kts 129°
2026-05-05 17:14 51.77859 0.81206 14898 ft 351 kts 147°
2026-05-05 17:14 51.75649 0.82885 15467 ft 354 kts 161°
2026-05-05 17:14 51.73277 0.84007 16051 ft 357 kts 164°
2026-05-05 17:14 51.70873 0.85081 16618 ft 360 kts 164°
2026-05-05 17:15 51.68453 0.86201 17181 ft 363 kts 163°
2026-05-05 17:15 51.66025 0.87355 17727 ft 365 kts 163°
2026-05-05 17:15 51.63581 0.88526 18254 ft 368 kts 163°
2026-05-05 17:15 51.61121 0.89714 18773 ft 370 kts 163°
2026-05-05 17:16 51.58607 0.90932 19275 ft 373 kts 163°
2026-05-05 17:16 51.56150 0.92118 19746 ft 376 kts 163°
2026-05-05 17:16 51.53604 0.93350 20220 ft 378 kts 163°
2026-05-05 17:16 51.51076 0.94574 20684 ft 381 kts 163°
2026-05-05 17:17 51.48565 0.95786 21142 ft 383 kts 163°
2026-05-05 17:17 51.46003 0.97023 21582 ft 386 kts 163°
2026-05-05 17:17 51.43430 0.98264 22018 ft 388 kts 163°
2026-05-05 17:17 51.40836 0.99513 22445 ft 390 kts 163°
2026-05-05 17:18 51.38227 1.00769 22868 ft 392 kts 163°
2026-05-05 17:18 51.35610 1.02027 23287 ft 394 kts 163°
2026-05-05 17:18 51.32976 1.03299 23690 ft 396 kts 163°
2026-05-05 17:18 51.30413 1.04959 24068 ft 399 kts 152°
2026-05-05 17:19 51.28140 1.07506 24419 ft 402 kts 138°
2026-05-05 17:19 51.26314 1.10900 24785 ft 405 kts 125°
2026-05-05 17:19 51.24779 1.14679 25157 ft 406 kts 123°
2026-05-05 17:19 51.23279 1.18506 25517 ft 408 kts 123°
2026-05-05 17:20 51.21762 1.22331 25872 ft 409 kts 124°
2026-05-05 17:20 51.20221 1.26154 26212 ft 410 kts 124°
2026-05-05 17:20 51.18667 1.29973 26545 ft 411 kts 124°
2026-05-05 17:20 51.17211 1.33917 26883 ft 415 kts 117°
2026-05-05 17:21 51.16232 1.38247 27173 ft 419 kts 104°
2026-05-05 17:21 51.15827 1.42864 27464 ft 423 kts 96°
2026-05-05 17:21 51.15624 1.47542 27773 ft 425 kts 96°
2026-05-05 17:22 51.15230 1.56959 28345 ft 428 kts 96°
2026-05-05 17:22 51.15008 1.61688 28614 ft 429 kts 97°
2026-05-05 17:22 51.14780 1.66431 28870 ft 431 kts 97°
2026-05-05 17:22 51.14545 1.71201 29123 ft 432 kts 97°
2026-05-05 17:23 51.14307 1.75985 29370 ft 434 kts 97°
2026-05-05 17:23 51.14065 1.80797 29613 ft 436 kts 97°
2026-05-05 17:23 51.13819 1.85598 29853 ft 437 kts 97°
2026-05-05 17:23 51.13572 1.90421 30088 ft 438 kts 97°
2026-05-05 17:24 51.13322 1.95272 30319 ft 440 kts 97°
2026-05-05 17:24 51.13068 2.00126 30531 ft 441 kts 97°
2026-05-05 17:24 51.12806 2.05008 30763 ft 442 kts 97°
2026-05-05 17:24 51.12547 2.09883 31043 ft 442 kts 97°
2026-05-05 17:25 51.12286 2.14752 31323 ft 441 kts 97°
2026-05-05 17:25 51.12111 2.17973 31486 ft 441 kts 98°
2026-05-05 17:25 51.11759 2.24477 31819 ft 440 kts 98°
2026-05-05 17:25 51.11495 2.29330 32080 ft 440 kts 98°
2026-05-05 17:26 51.11230 2.34166 32314 ft 439 kts 98°
2026-05-05 17:26 51.10961 2.39005 32536 ft 438 kts 98°
2026-05-05 17:26 51.10691 2.43832 32736 ft 438 kts 98°
2026-05-05 17:26 51.10419 2.48655 32908 ft 439 kts 98°
2026-05-05 17:27 51.10142 2.53480 32939 ft 438 kts 98°
2026-05-05 17:27 51.09491 2.63092 32908 ft 435 kts 104°
2026-05-05 17:27 51.08630 2.67665 32905 ft 430 kts 116°
2026-05-05 17:28 51.07316 2.71917 32912 ft 428 kts 121°
2026-05-05 17:28 51.04478 2.80235 32901 ft 428 kts 121°
2026-05-05 17:29 51.01668 2.88567 32899 ft 427 kts 121°
2026-05-05 17:29 50.98881 2.96884 32903 ft 427 kts 121°
2026-05-05 17:30 50.96090 3.05191 32899 ft 426 kts 121°
2026-05-05 17:30 50.93307 3.13491 32883 ft 427 kts 121°
2026-05-05 17:31 50.90515 3.21783 32881 ft 426 kts 121°
2026-05-05 17:31 50.87712 3.30057 32877 ft 426 kts 121°
2026-05-05 17:32 50.84909 3.38304 32873 ft 425 kts 121°
2026-05-05 17:32 50.82097 3.46532 32868 ft 425 kts 121°
2026-05-05 17:33 50.79289 3.54740 32861 ft 424 kts 121°
2026-05-05 17:33 50.76501 3.62871 32863 ft 423 kts 121°
2026-05-05 17:34 50.73689 3.71031 32865 ft 423 kts 121°
2026-05-05 17:34 50.70875 3.79179 32865 ft 422 kts 121°
2026-05-05 17:35 50.68058 3.87297 32869 ft 422 kts 121°
2026-05-05 17:35 50.65239 3.95390 32867 ft 421 kts 121°
2026-05-05 17:36 50.62420 4.03468 32868 ft 420 kts 121°
2026-05-05 17:36 50.59605 4.11523 32864 ft 420 kts 122°
2026-05-05 17:37 50.56783 4.19560 32862 ft 419 kts 122°
2026-05-05 17:37 50.53953 4.27586 32858 ft 419 kts 122°
2026-05-05 17:38 50.51115 4.35594 32863 ft 420 kts 122°
2026-05-05 17:38 50.48278 4.43601 32862 ft 419 kts 122°
2026-05-05 17:39 50.45436 4.51587 32867 ft 419 kts 122°
2026-05-05 17:39 50.42591 4.59560 32862 ft 419 kts 122°
2026-05-05 17:40 50.39738 4.67534 32860 ft 419 kts 122°
2026-05-05 17:40 50.36879 4.75499 32851 ft 420 kts 122°
2026-05-05 17:41 50.34015 4.83463 32854 ft 419 kts 122°
2026-05-05 17:41 50.31149 4.91409 32848 ft 419 kts 122°
2026-05-05 17:42 50.28275 4.99344 32844 ft 419 kts 122°
2026-05-05 17:42 50.25396 5.07264 32843 ft 419 kts 123°
2026-05-05 17:43 50.22516 5.15166 32842 ft 419 kts 123°
2026-05-05 17:43 50.19634 5.23055 32842 ft 418 kts 123°
2026-05-05 17:44 50.16748 5.30925 32844 ft 417 kts 123°
2026-05-05 17:44 50.13894 5.38808 32840 ft 418 kts 121°
2026-05-05 17:45 50.11187 5.46811 32842 ft 417 kts 121°
2026-05-05 17:45 50.08506 5.54745 32843 ft 417 kts 121°
2026-05-05 17:46 50.05797 5.62711 32841 ft 416 kts 121°
2026-05-05 17:46 50.03089 5.70657 32850 ft 415 kts 121°
2026-05-05 17:47 50.00823 5.77294 32842 ft 414 kts 121°
2026-05-05 17:47 49.98118 5.85198 32840 ft 414 kts 121°
2026-05-05 17:48 49.95407 5.93090 32825 ft 414 kts 121°
2026-05-05 17:48 49.92690 6.00968 32825 ft 414 kts 121°
2026-05-05 17:49 49.89971 6.08842 32816 ft 414 kts 121°
2026-05-05 17:49 49.87264 6.16649 32816 ft 414 kts 121°
2026-05-05 17:50 49.84511 6.24562 32812 ft 414 kts 121°
2026-05-05 17:50 49.81772 6.32419 32815 ft 415 kts 122°
2026-05-05 17:51 49.79040 6.40225 32814 ft 415 kts 122°
2026-05-05 17:51 49.76284 6.48079 32818 ft 416 kts 122°
2026-05-05 17:52 49.73512 6.55945 32817 ft 417 kts 122°
2026-05-05 17:52 49.70734 6.63818 32816 ft 417 kts 122°
2026-05-05 17:53 49.67949 6.71688 32818 ft 418 kts 122°
2026-05-05 17:53 49.65155 6.79556 32816 ft 418 kts 122°
2026-05-05 17:54 49.62352 6.87427 32819 ft 419 kts 122°
2026-05-05 17:54 49.59538 6.95299 32815 ft 420 kts 122°
2026-05-05 17:55 49.56713 7.03176 32820 ft 420 kts 122°
2026-05-05 17:55 49.53885 7.11043 32818 ft 420 kts 122°
2026-05-05 17:56 49.51044 7.18922 32813 ft 420 kts 123°
2026-05-05 17:56 49.48200 7.26785 32804 ft 421 kts 123°
2026-05-05 17:57 49.45346 7.34650 32800 ft 421 kts 123°
2026-05-05 17:57 49.42493 7.42500 32806 ft 421 kts 123°
2026-05-05 17:58 49.39629 7.50346 32803 ft 421 kts 123°
2026-05-05 17:58 49.36761 7.58190 32799 ft 421 kts 123°
2026-05-05 17:59 49.33882 7.66005 32798 ft 421 kts 123°
2026-05-05 17:59 49.30997 7.73826 32797 ft 421 kts 123°
2026-05-05 18:00 49.28112 7.81632 32801 ft 421 kts 123°
2026-05-05 18:00 49.25238 7.89380 32805 ft 421 kts 123°
2026-05-05 18:01 49.22342 7.97168 32804 ft 422 kts 123°
2026-05-05 18:01 49.19436 8.04962 32817 ft 421 kts 123°
2026-05-05 18:02 49.16558 8.12654 32820 ft 416 kts 123°
2026-05-05 18:02 49.13674 8.20341 32815 ft 417 kts 123°
2026-05-05 18:03 49.10781 8.28033 32813 ft 418 kts 123°
2026-05-05 18:03 49.07880 8.35728 32818 ft 419 kts 123°
2026-05-05 18:04 49.04967 8.43438 32820 ft 420 kts 123°
2026-05-05 18:04 49.01379 8.50130 32818 ft 413 kts 142°
2026-05-05 18:05 48.96895 8.55792 32821 ft 414 kts 143°
2026-05-05 18:05 48.92472 8.61428 32823 ft 415 kts 142°
2026-05-05 18:06 48.88063 8.67091 32820 ft 415 kts 142°
2026-05-05 18:06 48.83649 8.72763 32820 ft 416 kts 142°
2026-05-05 18:07 48.79219 8.78424 32821 ft 416 kts 143°
2026-05-05 18:07 48.74779 8.84090 32820 ft 418 kts 143°
2026-05-05 18:08 48.70331 8.89756 32820 ft 418 kts 143°
2026-05-05 18:08 48.65883 8.95412 32822 ft 418 kts 143°
2026-05-05 18:09 48.61430 9.01060 32823 ft 418 kts 143°
2026-05-05 18:09 48.56970 9.06703 32827 ft 419 kts 143°
2026-05-05 18:10 48.52498 9.12347 32829 ft 419 kts 143°
2026-05-05 18:10 48.48023 9.17983 32831 ft 419 kts 143°
2026-05-05 18:11 48.43538 9.23616 32826 ft 419 kts 144°
2026-05-05 18:11 48.39052 9.29234 32829 ft 420 kts 144°
2026-05-05 18:12 48.34558 9.34849 32828 ft 420 kts 144°
2026-05-05 18:12 48.30056 9.40468 32831 ft 421 kts 144°
2026-05-05 18:13 48.25557 9.46083 32826 ft 421 kts 144°
2026-05-05 18:13 48.21115 9.51827 32825 ft 422 kts 143°
2026-05-05 18:14 48.16677 9.57594 32837 ft 423 kts 143°
2026-05-05 18:14 48.14672 9.60855 32826 ft 431 kts 131°
2026-05-05 18:14 48.12970 9.64562 32837 ft 433 kts 128°
2026-05-05 18:15 48.09655 9.72084 32826 ft 434 kts 129°
2026-05-05 18:15 48.06279 9.79560 32831 ft 433 kts 129°
2026-05-05 18:16 48.02881 9.86999 32833 ft 434 kts 130°
2026-05-05 18:16 47.99477 9.94438 32839 ft 434 kts 129°
2026-05-05 18:17 47.96069 10.01865 32844 ft 434 kts 130°
2026-05-05 18:17 47.92657 10.09285 32840 ft 434 kts 130°
2026-05-05 18:18 47.89260 10.16645 32845 ft 434 kts 130°
2026-05-05 18:18 47.85831 10.24048 32837 ft 435 kts 130°
2026-05-05 18:19 47.82395 10.31457 32851 ft 435 kts 130°
2026-05-05 18:19 47.78950 10.38859 32849 ft 435 kts 130°
2026-05-05 18:20 47.75493 10.46269 32850 ft 436 kts 130°
2026-05-05 18:20 47.72027 10.53686 32844 ft 438 kts 130°
2026-05-05 18:21 47.68546 10.61110 32836 ft 439 kts 130°
2026-05-05 18:21 47.65047 10.68553 32831 ft 440 kts 130°
2026-05-05 18:22 47.61539 10.75996 32837 ft 441 kts 129°
2026-05-05 18:22 47.58015 10.83449 32836 ft 442 kts 129°
2026-05-05 18:23 47.54483 10.90902 32835 ft 443 kts 129°
2026-05-05 18:23 47.50933 10.98370 32839 ft 444 kts 129°
2026-05-05 18:24 47.47373 11.05840 32841 ft 445 kts 129°
2026-05-05 18:24 47.43803 11.13309 32837 ft 445 kts 129°
2026-05-05 18:25 47.40223 11.20775 32846 ft 446 kts 129°
2026-05-05 18:25 47.36638 11.28239 32853 ft 446 kts 129°
2026-05-05 18:26 47.33042 11.35702 32853 ft 447 kts 129°
2026-05-05 18:26 47.29436 11.43157 32851 ft 447 kts 129°
2026-05-05 18:27 47.25826 11.50613 32853 ft 448 kts 129°
2026-05-05 18:27 47.22207 11.58065 32853 ft 447 kts 129°
2026-05-05 18:28 47.16774 11.69205 32865 ft 447 kts 129°
2026-05-05 18:28 47.13138 11.76641 32885 ft 448 kts 129°
2026-05-05 18:29 47.09493 11.84077 32911 ft 449 kts 129°
2026-05-05 18:29 47.06342 11.92036 32920 ft 454 kts 119°
2026-05-05 18:30 47.03587 12.00365 32947 ft 454 kts 119°
2026-05-05 18:30 47.00808 12.08691 32965 ft 455 kts 119°
2026-05-05 18:31 46.98468 12.15660 32980 ft 455 kts 119°
2026-05-05 18:31 46.95684 12.23916 32996 ft 455 kts 119°
2026-05-05 18:32 46.92869 12.32225 32995 ft 456 kts 119°
2026-05-05 18:32 46.90057 12.40542 33000 ft 456 kts 119°
2026-05-05 18:33 46.87233 12.48840 33000 ft 456 kts 119°
2026-05-05 18:33 46.84399 12.57130 32999 ft 456 kts 119°
2026-05-05 18:34 46.81565 12.65412 32992 ft 456 kts 119°
2026-05-05 18:34 46.78727 12.73681 32996 ft 456 kts 119°
2026-05-05 18:35 46.75883 12.81941 32999 ft 456 kts 119°
2026-05-05 18:35 46.73025 12.90194 32997 ft 456 kts 119°
2026-05-05 18:36 46.70158 12.98453 32996 ft 457 kts 119°
2026-05-05 18:36 46.67288 13.06713 33001 ft 457 kts 119°
2026-05-05 18:37 46.64422 13.14952 32994 ft 456 kts 119°
2026-05-05 18:37 46.61543 13.23175 32993 ft 456 kts 120°
2026-05-05 18:38 46.58651 13.31411 32994 ft 457 kts 119°
2026-05-05 18:38 46.55456 13.39350 32997 ft 453 kts 132°
2026-05-05 18:39 46.51214 13.46086 33001 ft 451 kts 136°
2026-05-05 18:39 46.46941 13.52687 33001 ft 452 kts 136°
2026-05-05 18:40 46.42651 13.59358 32982 ft 452 kts 136°
2026-05-05 18:40 46.38360 13.66039 32984 ft 453 kts 136°
2026-05-05 18:41 46.34061 13.72710 32987 ft 454 kts 136°
2026-05-05 18:41 46.29750 13.79386 32980 ft 454 kts 136°
2026-05-05 18:42 46.25433 13.86055 32984 ft 454 kts 136°
2026-05-05 18:42 46.21102 13.92718 32977 ft 455 kts 136°
2026-05-05 18:43 46.16766 13.99383 32999 ft 455 kts 136°
2026-05-05 18:43 46.12426 14.06038 33003 ft 456 kts 136°
2026-05-05 18:44 46.08079 14.12681 33000 ft 455 kts 136°
2026-05-05 18:44 46.03737 14.19310 32998 ft 455 kts 136°
2026-05-05 18:45 45.99390 14.25919 33001 ft 455 kts 136°
2026-05-05 18:45 45.95036 14.32531 32998 ft 455 kts 136°
2026-05-05 18:46 45.90674 14.39138 32993 ft 456 kts 136°
2026-05-05 18:46 45.86300 14.45740 32996 ft 457 kts 136°
2026-05-05 18:47 45.81917 14.52338 33000 ft 457 kts 136°
2026-05-05 18:47 45.77528 14.58944 32999 ft 458 kts 136°
2026-05-05 18:48 45.73121 14.65552 32996 ft 459 kts 136°
2026-05-05 18:48 45.68703 14.72150 32996 ft 459 kts 136°
2026-05-05 18:49 45.64275 14.78738 33005 ft 459 kts 136°
2026-05-05 18:49 45.59850 14.85322 33002 ft 460 kts 136°
2026-05-05 18:50 45.55419 14.91902 33002 ft 460 kts 137°
2026-05-05 18:50 45.51001 14.98450 32998 ft 461 kts 136°
2026-05-05 18:51 45.46559 15.05038 32999 ft 460 kts 136°
2026-05-05 18:51 45.42150 15.11577 32996 ft 456 kts 136°
2026-05-05 18:52 45.37771 15.18056 32997 ft 454 kts 137°
2026-05-05 18:52 45.33335 15.24588 33004 ft 462 kts 136°
2026-05-05 18:53 45.28882 15.31178 33006 ft 463 kts 136°
2026-05-05 18:53 45.24417 15.37764 33001 ft 463 kts 137°
2026-05-05 18:54 45.19940 15.44330 33001 ft 463 kts 137°
2026-05-05 18:54 45.15461 15.50880 33005 ft 463 kts 137°
2026-05-05 18:55 45.10978 15.57425 32997 ft 463 kts 137°
2026-05-05 18:55 45.06487 15.63952 32992 ft 463 kts 137°
2026-05-05 18:56 45.01990 15.70464 32987 ft 463 kts 137°
2026-05-05 18:56 44.97484 15.76982 32986 ft 464 kts 137°
2026-05-05 18:57 44.93003 15.83457 32986 ft 464 kts 137°
2026-05-05 18:57 44.88496 15.89978 32998 ft 464 kts 137°
2026-05-05 18:58 44.83981 15.96481 33006 ft 465 kts 137°
2026-05-05 18:58 44.79451 16.02981 33010 ft 464 kts 137°
2026-05-05 18:59 44.74943 16.09437 33006 ft 460 kts 137°
2026-05-05 18:59 44.70471 16.15823 33012 ft 459 kts 137°
2026-05-05 19:00 44.65944 16.22267 33026 ft 466 kts 137°
2026-05-05 19:00 44.61402 16.28732 33021 ft 465 kts 137°
2026-05-05 19:01 44.56852 16.35184 33019 ft 465 kts 137°
2026-05-05 19:01 44.52294 16.41625 33012 ft 465 kts 137°
2026-05-05 19:02 44.47736 16.48059 33010 ft 465 kts 137°
2026-05-05 19:02 44.43177 16.54483 33019 ft 465 kts 137°
2026-05-05 19:03 44.38612 16.60888 33018 ft 465 kts 137°
2026-05-05 19:03 44.34040 16.67293 33020 ft 465 kts 137°
2026-05-05 19:04 44.29476 16.73681 33021 ft 465 kts 137°
2026-05-05 19:04 44.24902 16.80063 33019 ft 465 kts 137°
2026-05-05 19:05 44.20328 16.86422 33032 ft 463 kts 137°
2026-05-05 19:05 44.15775 16.92741 33032 ft 461 kts 137°
2026-05-05 19:06 44.11276 16.98985 33031 ft 459 kts 137°
2026-05-05 19:06 44.06737 17.05256 33041 ft 463 kts 137°
2026-05-05 19:07 44.02166 17.11561 33044 ft 462 kts 137°
2026-05-05 19:07 43.97610 17.17832 33039 ft 460 kts 138°
2026-05-05 19:08 43.93048 17.24092 33052 ft 465 kts 138°
2026-05-05 19:08 43.88438 17.30409 33051 ft 466 kts 138°
2026-05-05 19:09 43.83821 17.36711 33050 ft 465 kts 137°
2026-05-05 19:09 43.79223 17.42976 33055 ft 461 kts 138°
2026-05-05 19:10 43.74685 17.49155 33065 ft 459 kts 138°
2026-05-05 19:10 43.70087 17.55400 33077 ft 465 kts 138°
2026-05-05 19:11 43.65469 17.61648 33078 ft 464 kts 138°
2026-05-05 19:11 43.60849 17.67873 33080 ft 464 kts 138°
2026-05-05 19:12 43.56232 17.74096 33083 ft 464 kts 138°
2026-05-05 19:12 43.51616 17.80303 33079 ft 463 kts 138°
2026-05-05 19:13 43.47001 17.86490 33081 ft 464 kts 138°
2026-05-05 19:13 43.42366 17.92690 33083 ft 465 kts 138°
2026-05-05 19:14 43.37769 17.98840 33075 ft 463 kts 138°
2026-05-05 19:14 43.33119 18.05036 33080 ft 463 kts 138°
2026-05-05 19:15 43.28475 18.11204 33082 ft 465 kts 138°
2026-05-05 19:15 43.23813 18.17394 33081 ft 467 kts 138°
2026-05-05 19:16 43.19167 18.23545 33081 ft 468 kts 138°
2026-05-05 19:16 43.14477 18.29733 33082 ft 468 kts 138°
2026-05-05 19:17 43.09784 18.35920 33079 ft 469 kts 138°
2026-05-05 19:17 43.05079 18.42104 33079 ft 468 kts 138°
2026-05-05 19:18 43.00394 18.48255 33079 ft 466 kts 138°
2026-05-05 19:18 42.95712 18.54379 33079 ft 466 kts 139°
2026-05-05 19:19 42.91003 18.60527 33084 ft 471 kts 139°
2026-05-05 19:19 42.87065 18.65663 33081 ft 471 kts 139°
2026-05-05 19:20 42.82312 18.71844 33080 ft 473 kts 139°
2026-05-05 19:20 42.77553 18.78025 33082 ft 473 kts 139°
2026-05-05 19:21 42.72790 18.84186 33085 ft 472 kts 139°
2026-05-05 19:21 42.68035 18.90332 33091 ft 472 kts 139°
2026-05-05 19:22 42.63275 18.96473 33089 ft 472 kts 139°
2026-05-05 19:22 42.58493 19.02622 33091 ft 474 kts 139°
2026-05-05 19:23 42.53702 19.08769 33101 ft 474 kts 139°
2026-05-05 19:23 42.48941 19.14868 33097 ft 466 kts 139°
2026-05-05 19:24 42.44175 19.20956 33113 ft 475 kts 139°
2026-05-05 19:24 42.39352 19.27103 33111 ft 476 kts 139°
2026-05-05 19:25 42.34519 19.33248 33109 ft 477 kts 139°
2026-05-05 19:25 42.29678 19.39400 33110 ft 478 kts 139°
2026-05-05 19:26 42.24830 19.45539 33110 ft 477 kts 139°
2026-05-05 19:26 42.22407 19.48603 33003 ft 474 kts 139°
2026-05-05 19:26 42.20031 19.51605 32188 ft 476 kts 139°
2026-05-05 19:27 42.17592 19.54683 31640 ft 471 kts 139°
2026-05-05 19:27 42.15215 19.57677 31129 ft 465 kts 139°
2026-05-05 19:27 42.12864 19.60638 30645 ft 459 kts 138°
2026-05-05 19:27 42.10578 19.63515 30132 ft 453 kts 138°
2026-05-05 19:28 42.08291 19.66394 29641 ft 447 kts 138°
2026-05-05 19:28 42.06025 19.69235 29049 ft 443 kts 138°
2026-05-05 19:28 42.03776 19.72048 28452 ft 440 kts 138°
2026-05-05 19:28 42.01586 19.74907 27867 ft 437 kts 131°
2026-05-05 19:29 41.99914 19.78268 27313 ft 432 kts 115°
2026-05-05 19:29 41.98985 19.82064 26656 ft 427 kts 97°
2026-05-05 19:29 41.98949 19.85990 26138 ft 416 kts 78°
2026-05-05 19:29 41.99749 19.89668 25533 ft 407 kts 63°
2026-05-05 19:30 42.00884 19.93134 24977 ft 403 kts 64°
2026-05-05 19:30 42.01906 19.96626 24446 ft 401 kts 67°
2026-05-05 19:30 42.02784 20.00176 23899 ft 398 kts 69°
2026-05-05 19:30 42.03571 20.03727 23393 ft 394 kts 71°
2026-05-05 19:31 42.04315 20.07257 22888 ft 390 kts 71°
2026-05-05 19:31 42.05038 20.10751 22399 ft 386 kts 71°
2026-05-05 19:31 42.05754 20.14215 21883 ft 382 kts 71°
2026-05-05 19:31 42.06460 20.17639 21394 ft 377 kts 72°
2026-05-05 19:32 42.07158 20.21022 20925 ft 374 kts 72°
2026-05-05 19:32 42.07848 20.24377 20456 ft 370 kts 72°
2026-05-05 19:32 42.08527 20.27699 20011 ft 366 kts 72°
2026-05-05 19:32 42.09201 20.30980 19572 ft 361 kts 72°
2026-05-05 19:33 42.09866 20.34216 19144 ft 356 kts 72°
2026-05-05 19:33 42.10518 20.37409 18701 ft 351 kts 72°
2026-05-05 19:33 42.11163 20.40556 18295 ft 346 kts 72°
2026-05-05 19:33 42.11796 20.43665 17895 ft 341 kts 73°
2026-05-05 19:34 42.12444 20.46707 17496 ft 335 kts 68°
2026-05-05 19:34 42.13567 20.49389 17115 ft 327 kts 46°
2026-05-05 19:34 42.15318 20.51253 16746 ft 320 kts 26°
2026-05-05 19:35 42.19364 20.53584 16037 ft 315 kts 20°
2026-05-05 19:35 42.21386 20.54708 15698 ft 314 kts 21°
2026-05-05 19:35 42.23396 20.55854 15357 ft 313 kts 21°
2026-05-05 19:35 42.25401 20.57008 15004 ft 314 kts 22°
2026-05-05 19:36 42.27409 20.58173 14629 ft 315 kts 22°
2026-05-05 19:36 42.29422 20.59343 14262 ft 316 kts 22°
2026-05-05 19:36 42.31440 20.60520 13896 ft 316 kts 22°
2026-05-05 19:36 42.33460 20.61703 13538 ft 316 kts 22°
2026-05-05 19:37 42.35484 20.62886 13176 ft 316 kts 22°
2026-05-05 19:37 42.37475 20.64053 12822 ft 316 kts 23°
2026-05-05 19:37 42.39493 20.65239 12444 ft 317 kts 23°
2026-05-05 19:37 42.41515 20.66429 12040 ft 318 kts 23°
2026-05-05 19:38 42.43543 20.67619 11654 ft 316 kts 23°
2026-05-05 19:38 42.45542 20.68795 11273 ft 310 kts 23°
2026-05-05 19:38 42.47501 20.69947 10906 ft 304 kts 23°
2026-05-05 19:38 42.49424 20.71078 10551 ft 299 kts 23°
2026-05-05 19:39 42.51315 20.72188 10202 ft 294 kts 23°
2026-05-05 19:39 42.53187 20.73291 9879 ft 293 kts 24°
2026-05-05 19:39 42.55058 20.74397 9479 ft 295 kts 24°
2026-05-05 19:39 42.56938 20.75509 9075 ft 293 kts 23°
2026-05-05 19:40 42.58795 20.76606 8666 ft 290 kts 23°
2026-05-05 19:40 42.60642 20.77694 8268 ft 287 kts 23°
2026-05-05 19:40 42.62469 20.78772 7885 ft 287 kts 23°
2026-05-05 19:40 42.64302 20.79855 7497 ft 287 kts 23°
2026-05-05 19:41 42.66135 20.80942 7133 ft 286 kts 24°
2026-05-05 19:41 42.67941 20.82015 6786 ft 282 kts 24°
2026-05-05 19:41 42.69705 20.83058 6672 ft 269 kts 24°
2026-05-05 19:41 42.71366 20.84044 6660 ft 253 kts 24°
2026-05-05 19:42 42.72962 20.85010 6664 ft 251 kts 27°
2026-05-05 19:42 42.74317 20.86469 6665 ft 250 kts 56°
2026-05-05 19:42 42.74933 20.88639 6407 ft 247 kts 83°
2026-05-05 19:42 42.75047 20.90960 6022 ft 246 kts 88°
2026-05-05 19:43 42.75119 20.93278 5640 ft 245 kts 87°
2026-05-05 19:43 42.75210 20.95590 5298 ft 242 kts 87°
2026-05-05 19:43 42.75311 20.97831 5082 ft 231 kts 86°
2026-05-05 19:43 42.75269 20.99921 4952 ft 213 kts 105°
2026-05-05 19:44 42.74495 21.01485 4819 ft 194 kts 144°
2026-05-05 19:44 42.73284 21.02041 4666 ft 180 kts 172°
2026-05-05 19:44 42.72076 21.02089 4442 ft 173 kts 176°
2026-05-05 19:44 42.70898 21.02195 4212 ft 168 kts 176°
2026-05-05 19:45 42.69737 21.02311 3982 ft 166 kts 175°
2026-05-05 19:45 42.68660 21.02421 3782 ft 148 kts 175°
2026-05-05 19:45 42.67642 21.02525 3582 ft 144 kts 176°
2026-05-05 19:45 42.66665 21.02623 3399 ft 139 kts 180°
2026-05-05 19:46 42.65703 21.02723 3210 ft 138 kts 180°
2026-05-05 19:46 42.64745 21.02821 3025 ft 139 kts 180°
2026-05-05 19:46 42.63774 21.02922 2845 ft 139 kts 179°
2026-05-05 19:46 42.62817 21.03019 2669 ft 138 kts 180°
2026-05-05 19:47 42.61867 21.03125 2474 ft 137 kts 178°
2026-05-05 19:47 42.60920 21.03243 2291 ft 136 kts 179°
2026-05-05 19:47 42.59972 21.03330 2116 ft 137 kts 179°
2026-05-05 19:47 42.59019 21.03424 1941 ft 137 kts 179°
2026-05-05 19:48 42.58077 21.03513 1795 ft 129 kts 178°
2026-05-05 19:48 42.57334 21.03597 1792 ft 79 kts 172°
2026-05-05 19:48 42.56992 21.03632 1790 ft 26 kts 187°
2026-05-05 19:48 42.56774 21.03610 1789 ft 20 kts 197°
2026-05-05 19:49 42.56639 21.03544 1785 ft 21 kts 201°
2026-05-05 19:49 42.56578 21.03507 1786 ft 8 kts 214°
2026-05-05 19:49 42.56562 21.03421 1787 ft 10 kts 327°
2026-05-05 19:49 42.56640 21.03409 1788 ft 12 kts 356°
2026-05-05 19:50 42.56729 21.03399 1787 ft 13 kts 354°
2026-05-05 19:50 42.56829 21.03388 1787 ft 16 kts 355°
2026-05-05 19:50 42.56953 21.03375 1791 ft 19 kts 355°
2026-05-05 19:50 42.57093 21.03361 1790 ft 21 kts 357°
2026-05-05 19:51 42.57216 21.03349 1792 ft 16 kts 354°
2026-05-05 19:51 42.57322 21.03299 1791 ft 18 kts 288°
2026-05-05 19:51 42.57394 21.03231 1792 ft 15 kts 346°
2026-05-05 19:51 42.57440 21.03227 1792 ft 0 kts
2026-05-05 19:52 42.57452 21.03227 1792 ft 4 kts 359°
2026-05-05 19:52 42.57481 21.03226 1791 ft 0 kts 358°
2026-05-05 19:52 42.57482 21.03226 1791 ft 1 kts 358°
2026-05-05 19:53 42.57493 21.03216 1791 ft 3 kts 301°
2026-05-05 19:53 42.57494 21.03176 1791 ft 6 kts 266°
2026-05-05 19:53 42.57492 21.03136 1792 ft 0 kts 265°
2026-05-05 19:53 42.57492 21.03130 1792 ft 2 kts 265°
2026-05-05 19:54 42.57491 21.03115 1792 ft 0 kts 264°